Flag for Romania Weather past 2 weeks in Cluj-Napoca, Romania

37 °F

Light rain. Mostly cloudy.

Feels Like: 37 °F
Forecast: 35 / 43 °F
Wind: 1 mph from North

Location: Cluj Airport-Napoca

Current Time: Nov 25, 2015 at 12:33:38 AM

Latest Report: Nov 24, 2015 at 11:30 PM

Visibility: N/A

Pressure: 30.15 "Hg

Humidity: 87%

Dew point: 34 °F

Location of Cluj-NapocaLocation

Historic Weather in Cluj-Napoca — Graph


Cluj-Napoca temperature yesterday

Maximum temperature yesterday: 41 °F (at 12:00 PM)
Minimum temperature yesterday: 36 °F (at 7:30 AM)
Average temperature yesterday: 39 °F

Past Weeks' High & Low Weather Summary

High64 °F (Nov 11, 3:30 PM)100% (Nov 9, 11:00 PM)30.39 "Hg (Nov 9, 11:00 PM)
Low36 °F (Nov 15, 2:00 AM)36% (Nov 14, 2:00 PM)29.18 "Hg (Nov 22, 1:00 AM)
Average48 °F85%30.00 "Hg
* Reported Nov 9 11:00 PM — Nov 24 11:00 PM, Cluj-Napoca, Weather by CustomWeather, © 2015

Note: Actual official high and low records may vary slightly from our data, if they occured in-between our weather recording intervals... More about our weather records


Cluj-Napoca weather history for previous 24 hours

Time TempWeatherWind HumidityBarometerVisibility
11:00 PM
Tue, Nov 24
37 °FLight rain. Mostly cloudy.1 mph87%30.15 "HgN/A
10:30 PM37 °FLight rain. Mostly cloudy.3 mph93%30.15 "HgN/A
10:00 PM37 °FMostly cloudy.3 mph93%30.15 "HgN/A
9:30 PM37 °FMostly cloudy.No wind81%30.15 "HgN/A
9:00 PM39 °FLight rain. Mostly cloudy.No wind81%30.18 "HgN/A
8:30 PM39 °FLight rain. Mostly cloudy.No wind87%30.18 "HgN/A
8:00 PM39 °FMostly cloudy.No wind81%30.18 "HgN/A
7:30 PM39 °FOvercast.3 mph81%30.18 "HgN/A
7:00 PM39 °FOvercast.No wind81%30.18 "HgN/A
6:30 PM39 °FClear.No wind75%30.18 "Hg10 mi
6:00 PM39 °FPassing clouds.2 mph81%30.18 "HgN/A
5:30 PM39 °FPassing clouds.2 mph81%30.18 "HgN/A
5:00 PM41 °FOvercast.2 mph76%30.18 "HgN/A
4:30 PM41 °FPassing clouds.6 mph76%30.18 "HgN/A
4:00 PM41 °FScattered clouds.5 mph76%30.18 "HgN/A
3:30 PM41 °FSunny.6 mph70%30.18 "Hg10 mi
3:00 PM41 °FPassing clouds.5 mph70%30.18 "HgN/A
2:30 PM41 °FPassing clouds.3 mph70%30.21 "HgN/A
2:00 PM41 °FSunny.5 mph70%30.21 "Hg10 mi
1:30 PM41 °FPassing clouds.3 mph66%30.21 "HgN/A
1:00 PM41 °FPassing clouds.3 mph66%30.21 "HgN/A
12:30 PM41 °FPassing clouds.3 mph70%30.21 "HgN/A
12:00 PM41 °FPassing clouds.3 mph70%30.24 "HgN/A
11:30 AM39 °FPassing clouds.5 mph70%30.27 "HgN/A
11:00 AM39 °FSunny.No wind75%30.27 "Hg10 mi
10:30 AM39 °FPassing clouds.2 mph75%30.27 "HgN/A
10:00 AM37 °FScattered clouds.5 mph87%30.27 "HgN/A
9:30 AM37 °FScattered clouds.5 mph87%30.27 "HgN/A
8:30 AM36 °FPartly sunny.3 mph93%30.30 "HgN/A
8:00 AM36 °FScattered clouds.3 mph93%30.27 "HgN/A
7:30 AM36 °FPassing clouds.2 mph93%30.27 "HgN/A
7:00 AM37 °FOvercast.3 mph87%30.27 "HgN/A
6:30 AM37 °FPassing clouds.5 mph87%30.27 "HgN/A
5:30 AM37 °FPassing clouds.5 mph87%30.27 "HgN/A
5:00 AM37 °FOvercast.3 mph87%30.27 "HgN/A
4:00 AM37 °FOvercast.5 mph81%30.27 "HgN/A
3:00 AM37 °FOvercast.2 mph81%30.30 "HgN/A
2:00 AM37 °FOvercast.No wind87%30.27 "HgN/A
1:00 AM37 °FPassing clouds.2 mph81%30.30 "HgN/A
12:00 AM37 °FPartly cloudy.No wind87%30.30 "HgN/A
Weather by CustomWeather, © 2015

See weather overviewHow to use our weather pages